H-2A R/B

基本信息
目录编号:
27369
目录名称:
H-2A R/B
国际标识:
2002-003C
轨道中心:
EARTH
物体状态:
在轨
发射日期:
2002-02-04 UTC
国别:
日本 (JP)
轨道信息
数据来源: 国际轨道数据
星历时间: 2026-07-11T08:24:11+0800
半长轴: 23750.307km
偏心率: 0.6878008
轨道倾角: 23.702°
近地点辐角: 258.338°
升交点赤经: 135.388°
平近点角: 23.179°
近地点: 1036.689km
远地点: 33707.651km
周期: 607.105分钟
每日圈数: 2.371914
详细信息
发射场:
TNSTA
轨道高度:
LEO
数据来源:
AOE Integration Group
参考系:
TEME
时间系统:
UTC
历元类型:
SGP4
2D轨道图
3D轨道图
轨道高度分析图
轨道倾角分析图
轨道综合分析图
查看轨道综合分析图